Tracking 28915 objects as of 29-May-2024
HD Live streaming from Space Station
objects crossing your sky now

COSMOS 1823 DEB

Track COSMOS 1823 DEB now!
10-day predictions


NORAD ID: 39810
Int'l Code: 1987-020EJ
Perigee: 1,479.8 km
Apogee: 1,534.2 km
Inclination: 73.7 °
Period: 116.0 minutes
Semi major axis: 7878 km
RCS: 0.0123 m2 (small)
Launch date: February 20, 1987
Source: Commonwealth of Independent States (former USSR) (CIS)
Launch site: PLESETSK MISSILE AND SPACE COMPLEX (PKMTR)

Note: This is SATELLITE DEBRIS
Your satellite tracking list
Your tracking list is empty




NASA's NSSDC Master Catalog

Two Line Element Set (TLE):
1 39810U 87020EJ  24123.33235267  .00000163  00000-0  13202-2 0  9991
2 39810  73.6996 138.5375 0034533 141.3483 219.0042 12.41587866451092
Source of the keplerian elements: AFSPC